Location: Northcutt
(34.7304°N, 84.4305°W)
Time: 05:22:36
(UTC+00:00)

Vanguard 2 - Pass Details

Date: 11 October 2022
Orbit: 553 x 2933 km, 32.9° (Epoch: 04 December)

Event Time Altitude Azimuth Distance (km) Brightness Sun altitude
Rises 14:51:18 0° 223° (SW) 3,142 10.7 34.7°
Reaches altitude 10° 14:53:29 10° 214° (SW) 2,409 10.3 35.0°
Maximum altitude 14:58:42 37° 148° (SSE) 1,623 11.5 35.8°
Drops below altitude 10° 15:06:48 10° 85° (E) 3,771 11.7 37.0°
Sets 15:11:06 0° 79° (ENE) 5,190 12.1 37.6°
